Satellite-Ground Cal/Val Region Overpasses Predictions

Prediction of Satellite NPP Overpassing Cal/Val Region: PacNW

Region Location: (Latitude: 10.00, Longitude: 139.50) to (Latitude: 22.70, Longitude: 165.60).

Table of predicted overpasses for the next 14.0 days since TLE Epoch: 7/9/2022
Interval Starting Time Starting Location Ending Time Ending Location
1 07/09/2022 15:11:26 ( 22.64, 157.13) 07/09/2022 15:15:01 ( 10.02, 154.13)
2 07/10/2022 02:20:31 ( 10.01, 164.66) 07/10/2022 02:24:07 ( 22.69, 161.64)
3 07/10/2022 14:52:25 ( 22.68, 161.89) 07/10/2022 14:56:01 ( 10.00, 158.88)
4 07/11/2022 03:43:00 ( 10.03, 144.03) 07/11/2022 03:46:35 ( 22.66, 141.03)
5 07/11/2022 14:34:37 ( 18.38, 165.59) 07/11/2022 14:36:59 ( 10.04, 163.64)
6 07/11/2022 16:14:54 ( 22.66, 141.27) 07/11/2022 16:16:58 ( 15.38, 139.50)
7 07/12/2022 03:24:00 ( 10.06, 148.78) 07/12/2022 03:27:35 ( 22.68, 145.78)
8 07/12/2022 15:55:53 ( 22.69, 146.03) 07/12/2022 15:59:29 ( 10.01, 143.01)
9 07/13/2022 03:04:59 ( 10.02, 153.54) 07/13/2022 03:08:34 ( 22.64, 150.54)
10 07/13/2022 15:36:52 ( 22.67, 150.78) 07/13/2022 15:40:27 ( 10.05, 147.77)
11 07/14/2022 02:45:58 ( 10.05, 158.29) 07/14/2022 02:49:33 ( 22.67, 155.29)
12 07/14/2022 15:17:52 ( 22.64, 155.52) 07/14/2022 15:21:27 ( 10.02, 152.52)
13 07/15/2022 02:26:57 ( 10.01, 163.05) 07/15/2022 02:30:33 ( 22.69, 160.04)
14 07/15/2022 14:58:50 ( 22.68, 160.29) 07/15/2022 15:02:25 ( 10.06, 157.28)
15 07/16/2022 02:10:36 ( 19.43, 165.60) 07/16/2022 02:11:31 ( 22.66, 164.80)
16 07/16/2022 03:49:26 ( 10.04, 142.43) 07/16/2022 03:52:55 ( 22.31, 139.51)
17 07/16/2022 14:39:50 ( 22.65, 165.03) 07/16/2022 14:43:25 ( 10.03, 162.03)
18 07/16/2022 16:21:20 ( 22.65, 139.66) 07/16/2022 16:21:30 ( 22.06, 139.51)
19 07/17/2022 03:30:25 ( 10.01, 147.19) 07/17/2022 03:34:01 ( 22.69, 144.17)
20 07/17/2022 16:02:18 ( 22.68, 144.42) 07/17/2022 16:05:54 ( 10.00, 141.41)
21 07/18/2022 03:11:24 ( 10.03, 151.94) 07/18/2022 03:14:59 ( 22.66, 148.93)
22 07/18/2022 15:43:18 ( 22.66, 149.17) 07/18/2022 15:46:53 ( 10.04, 146.17)
23 07/19/2022 02:52:23 ( 10.00, 156.70) 07/19/2022 02:55:59 ( 22.68, 153.68)
24 07/19/2022 15:24:16 ( 22.69, 153.93) 07/19/2022 15:27:52 ( 10.01, 150.91)
25 07/20/2022 02:33:22 ( 10.03, 161.45) 07/20/2022 02:36:57 ( 22.65, 158.44)
26 07/20/2022 15:05:16 ( 22.66, 158.68) 07/20/2022 15:08:51 ( 10.04, 155.68)
27 07/21/2022 02:15:07 ( 12.70, 165.59) 07/21/2022 02:17:57 ( 22.68, 163.19)
28 07/21/2022 03:55:52 ( 10.06, 140.82) 07/21/2022 03:57:28 ( 15.70, 139.51)
29 07/21/2022 14:46:15 ( 22.70, 163.44) 07/21/2022 14:49:51 ( 10.02, 160.42)
30 07/22/2022 03:36:50 ( 10.02, 145.58) 07/22/2022 03:40:25 ( 22.65, 142.58)
31 07/22/2022 14:30:19 ( 11.81, 165.59) 07/22/2022 14:30:49 ( 10.05, 165.19)
